EN

Hourly Weather Godziszka

Today, 19 May, Wednesday

Time Temperature Precipitation Wind Pressure Humidity
00:00 +8°C° 0 mm 2 mps 749 mmHg 95%
01:00 +8°C° 0 mm 2 mps 749 mmHg 95%
02:00 +8°C° 0 mm 2 mps 749 mmHg 95%
03:00 +7°C° 0 mm 2 mps 749 mmHg 94%
04:00 +7°C° 0 mm 2 mps 749 mmHg 94%
05:00 +8°C° 0 mm 3 mps 749 mmHg 91%
06:00 +9°C° 0 mm 3 mps 749 mmHg 87%
07:00 +10°C° 0 mm 3 mps 750 mmHg 84%
08:00 +11°C° 0 mm 4 mps 750 mmHg 81%
09:00 +12°C° 0 mm 4 mps 750 mmHg 77%
10:00 +13°C° 0 mm 4 mps 750 mmHg 74%
11:00 +14°C° 0.2 mm 4 mps 750 mmHg 71%
12:00 +14°C° 0.2 mm 4 mps 750 mmHg 68%
13:00 +15°C° 0.2 mm 4 mps 750 mmHg 64%
14:00 +14°C° 0.6 mm 4 mps 750 mmHg 68%
15:00 +14°C° 0.6 mm 4 mps 750 mmHg 71%
16:00 +13°C° 0.6 mm 3 mps 750 mmHg 75%
17:00 +12°C° 0.2 mm 3 mps 751 mmHg 79%
18:00 +12°C° 0.2 mm 3 mps 751 mmHg 82%
19:00 +12°C° 0.2 mm 2 mps 751 mmHg 86%
20:00 +9°C° 0 mm 2 mps 751 mmHg 87%
21:00 +8°C° 0 mm 2 mps 752 mmHg 88%
22:00 +8°C° 0 mm 1 mps 752 mmHg 89%
23:00 +7°C° 0 mm 2 mps 752 mmHg 89%

Tomorrow, 20 May, Thursday

Time Temperature Precipitation Wind Pressure Humidity
00:00 +6°C° 0 mm 2 mps 752 mmHg 89%
01:00 +6°C° 0 mm 2 mps 752 mmHg 89%
02:00 +5°C° 0 mm 2 mps 753 mmHg 89%
03:00 +5°C° 0 mm 2 mps 753 mmHg 89%
04:00 +4°C° 0 mm 2 mps 753 mmHg 89%
05:00 +5°C° 0 mm 3 mps 753 mmHg 85%
06:00 +8°C° 0 mm 3 mps 753 mmHg 81%
07:00 +10°C° 0 mm 3 mps 754 mmHg 77%
08:00 +11°C° 0 mm 3 mps 754 mmHg 71%
09:00 +13°C° 0 mm 3 mps 754 mmHg 65%
10:00 +14°C° 0 mm 3 mps 754 mmHg 58%
11:00 +16°C° 0 mm 3 mps 753 mmHg 56%
12:00 +16°C° 0 mm 3 mps 753 mmHg 54%
13:00 +17°C° 0 mm 3 mps 753 mmHg 51%
14:00 +15°C° 0.1 mm 4 mps 753 mmHg 56%
15:00 +15°C° 0.1 mm 4 mps 753 mmHg 61%
16:00 +14°C° 0.1 mm 4 mps 754 mmHg 66%
17:00 +13°C° 0.2 mm 4 mps 754 mmHg 71%
18:00 +12°C° 0.2 mm 3 mps 754 mmHg 76%
19:00 +12°C° 0.2 mm 2 mps 754 mmHg 81%
20:00 +10°C° 0 mm 2 mps 754 mmHg 83%
21:00 +9°C° 0 mm 2 mps 754 mmHg 85%
22:00 +7°C° 0 mm 2 mps 755 mmHg 87%
23:00 +8°C° 0 mm 1 mps 755 mmHg 87%

Day after tomorrow, 21 May, Friday

Time Temperature Precipitation Wind Pressure Humidity
00:00 +8°C° 0 mm 1 mps 755 mmHg 87%
01:00 +7°C° 0 mm 1 mps 755 mmHg 86%
02:00 +7°C° 0 mm 1 mps 755 mmHg 87%
03:00 +6°C° 0 mm 2 mps 755 mmHg 88%
04:00 +6°C° 0 mm 2 mps 754 mmHg 89%
05:00 +8°C° 0 mm 3 mps 754 mmHg 85%
06:00 +9°C° 0 mm 3 mps 754 mmHg 81%
07:00 +11°C° 0 mm 4 mps 754 mmHg 78%
08:00 +12°C° 0 mm 4 mps 754 mmHg 72%
09:00 +14°C° 0 mm 5 mps 753 mmHg 66%
10:00 +15°C° 0 mm 6 mps 753 mmHg 60%
11:00 +16°C° 0 mm 6 mps 753 mmHg 58%
12:00 +16°C° 0 mm 6 mps 752 mmHg 55%
13:00 +17°C° 0 mm 6 mps 752 mmHg 52%
14:00 +17°C° 0.1 mm 6 mps 751 mmHg 57%
15:00 +16°C° 0.1 mm 6 mps 751 mmHg 61%
16:00 +16°C° 0.1 mm 6 mps 750 mmHg 66%
17:00 +15°C° 0.2 mm 5 mps 750 mmHg 69%
18:00 +14°C° 0.2 mm 5 mps 749 mmHg 71%
19:00 +13°C° 0.2 mm 5 mps 749 mmHg 74%
20:00 +13°C° 0.4 mm 4 mps 749 mmHg 80%
21:00 +12°C° 0.4 mm 4 mps 749 mmHg 86%
22:00 +11°C° 0.4 mm 3 mps 748 mmHg 92%
23:00 +10°C° 0.1 mm 3 mps 748 mmHg 93%

22 May, Saturday

Time Temperature Precipitation Wind Pressure Humidity
00:00 +10°C° 0.1 mm 4 mps 748 mmHg 94%
01:00 +10°C° 0.1 mm 4 mps 748 mmHg 95%
02:00 +10°C° 0 mm 4 mps 748 mmHg 95%
03:00 +10°C° 0 mm 4 mps 748 mmHg 95%
04:00 +10°C° 0 mm 4 mps 748 mmHg 94%
05:00 +11°C° 0 mm 4 mps 748 mmHg 92%
06:00 +11°C° 0 mm 4 mps 748 mmHg 90%
07:00 +12°C° 0 mm 5 mps 748 mmHg 87%
08:00 +13°C° 0.3 mm 5 mps 748 mmHg 85%
09:00 +13°C° 0.3 mm 5 mps 748 mmHg 82%
10:00 +14°C° 0.3 mm 6 mps 748 mmHg 80%
11:00 +13°C° 0.3 mm 5 mps 748 mmHg 82%
12:00 +13°C° 0.3 mm 5 mps 748 mmHg 85%
13:00 +13°C° 0.3 mm 5 mps 748 mmHg 87%
14:00 +13°C° 0.5 mm 4 mps 747 mmHg 89%
15:00 +12°C° 0.5 mm 4 mps 747 mmHg 90%
16:00 +12°C° 0.5 mm 4 mps 747 mmHg 92%
17:00 +12°C° 0.2 mm 4 mps 747 mmHg 91%
18:00 +12°C° 0.2 mm 4 mps 747 mmHg 91%
19:00 +11°C° 0.2 mm 4 mps 747 mmHg 90%
20:00 +11°C° 0 mm 4 mps 747 mmHg 91%
21:00 +10°C° 0 mm 4 mps 747 mmHg 92%
22:00 +10°C° 0 mm 4 mps 747 mmHg 93%
23:00 +9°C° 0 mm 3 mps 747 mmHg 94%

23 May, Sunday

Time Temperature Precipitation Wind Pressure Humidity
00:00 +8°C° 0 mm 3 mps 747 mmHg 95%
01:00 +8°C° 0 mm 3 mps 747 mmHg 95%
02:00 +8°C° 0 mm 3 mps 747 mmHg 96%
03:00 +6°C° 0 mm 4 mps 748 mmHg 96%
04:00 +6°C° 0 mm 4 mps 748 mmHg 96%
05:00 +7°C° 0 mm 4 mps 748 mmHg 94%
06:00 +8°C° 0 mm 5 mps 748 mmHg 92%
07:00 +8°C° 0 mm 5 mps 749 mmHg 90%
08:00 +9°C° 0.2 mm 6 mps 749 mmHg 85%
09:00 +10°C° 0.2 mm 6 mps 749 mmHg 79%
10:00 +11°C° 0.2 mm 7 mps 750 mmHg 73%
11:00 +11°C° 0.1 mm 7 mps 750 mmHg 71%
12:00 +11°C° 0.1 mm 7 mps 750 mmHg 68%
13:00 +11°C° 0.1 mm 6 mps 751 mmHg 65%
14:00 +11°C° 0 mm 6 mps 751 mmHg 65%
15:00 +10°C° 0 mm 6 mps 751 mmHg 64%
16:00 +10°C° 0 mm 6 mps 752 mmHg 64%
17:00 +10°C° 0 mm 5 mps 752 mmHg 67%
18:00 +10°C° 0 mm 3 mps 752 mmHg 69%
19:00 +9°C° 0 mm 2 mps 752 mmHg 72%
20:00 +8°C° 0 mm 2 mps 753 mmHg 74%
21:00 +7°C° 0 mm 2 mps 753 mmHg 76%
22:00 +5°C° 0 mm 3 mps 753 mmHg 77%
23:00 +5°C° 0 mm 3 mps 753 mmHg 79%

24 May, Monday

Time Temperature Precipitation Wind Pressure Humidity
00:00 +5°C° 0 mm 3 mps 754 mmHg 82%
01:00 +5°C° 0 mm 3 mps 754 mmHg 84%
02:00 +5°C° 0 mm 4 mps 753 mmHg 83%
03:00 +5°C° 0 mm 4 mps 753 mmHg 83%
04:00 +5°C° 0 mm 4 mps 753 mmHg 82%
05:00 +7°C° 0 mm 5 mps 753 mmHg 81%
06:00 +8°C° 0 mm 5 mps 753 mmHg 79%
07:00 +10°C° 0 mm 6 mps 753 mmHg 77%
08:00 +11°C° 0 mm 6 mps 753 mmHg 73%
09:00 +12°C° 0 mm 7 mps 753 mmHg 69%
10:00 +15°C° 0 mm 8 mps 753 mmHg 65%
11:00 +13°C° 0.1 mm 8 mps 753 mmHg 67%
12:00 +14°C° 0.1 mm 7 mps 753 mmHg 70%
13:00 +14°C° 0.1 mm 7 mps 753 mmHg 72%
14:00 +14°C° 0.1 mm 7 mps 752 mmHg 72%
15:00 +15°C° 0.1 mm 7 mps 752 mmHg 72%
16:00 +15°C° 0.1 mm 7 mps 752 mmHg 72%
17:00 +14°C° 0.1 mm 7 mps 752 mmHg 74%
18:00 +14°C° 0.1 mm 6 mps 752 mmHg 76%
19:00 +13°C° 0.1 mm 5 mps 752 mmHg 77%
20:00 +13°C° 0 mm 5 mps 752 mmHg 76%
21:00 +13°C° 0 mm 5 mps 752 mmHg 75%
22:00 +12°C° 0 mm 5 mps 752 mmHg 74%
23:00 +12°C° 0 mm 4 mps 752 mmHg 75%
Show more